Regional Weather Roundup
Issued by NWS

Home | Current Version | Previous Version | Graphics & Text | Print | Product List | Glossary On
Versions: 1 2 3 4 5 6 7 8 9 10 11 12 13 14 15 16 17 18 19 20 21 22 23 24 25 26 27 28 29 30 31 32 33 34 35 36 37 38 39 40 41 42 43 44 45 46 47 48 49 50
000
ASUS43 KLOT 090512
RWRIL

ILLINOIS REGIONAL WEATHER ROUNDUP
NATIONAL WEATHER SERVICE CHICAGO/ROMEOVILLE IL
1100 PM CST THU DEC 08 2016

NOTE: "FAIR" INDICATES FEW OR NO CLOUDS BELOW 12,000 FEET WITH NO
SIGNIFICANT WEATHER AND/OR OBSTRUCTIONS TO VISIBILITY.

* THESE STATIONS ARE NOT UNDER NWS QUALITY CONTROL. THEY ALSO MAY NOT
  REPORT WEATHER SUCH AS PRECIPITATION OR FOG.

ILZ001-002-007-009-015-016-024-090600-
NORTHWEST ILLINOIS

CITY           SKY/WX    TMP DP  RH WIND       PRES   REMARKS
MOLINE         CLOUDY    23  11  60 W13       30.51R WCI  11
STERLING*      FLURRIES  21  16  81 W15       30.48R WCI   8
SAVANNA*       CLOUDY    22  15  73 W10       30.48R WCI  11
$$

ILZ003-004-008-010-011-017-018-090600-
NORTH CENTRAL ILLINOIS

CITY           SKY/WX    TMP DP  RH WIND       PRES   REMARKS
ROCKFORD       CLOUDY    22  16  78 W12       30.45R WCI  10
FREEPORT*      CLOUDY    21  16  81 W10       30.46R WCI   9
ROCHELLE*      CLOUDY    21  17  83 W12       30.45R WCI   9
DE KALB*       MOCLDY    21  17  84 W13       30.42R WCI   9
$$

ILZ005-006-012>014-019>023-090600-
NORTHEAST ILLINOIS

CITY           SKY/WX    TMP DP  RH WIND       PRES   REMARKS
CHICAGO-OHARE  PTCLDY    22  16  78 W10       30.40R WCI  11
CHICAGO-MIDWAY PTCLDY    23  14  68 W10       30.42R WCI  12
AURORA         CLOUDY    23  17  78 W15       30.43S WCI  10
LANSING*       CLEAR     22  18  85 W10       30.42S WCI  11
JOLIET*        CLOUDY    24  19  78 W10G16    30.45R WCI  14
WAUKEGAN       CLOUDY    22  16  78 W7        30.37R WCI  13
DUPAGE AIRPORT CLEAR     21  15  78 W13       30.41R WCI   9
KANKAKEE*      MIX PCPN  23  16  74 W14       30.46R WCI  11
WHEELING       CLEAR     22  15  75 W9        30.41R WCI  12
MORRIS*        FLURRIES  23  17  79 W14       30.45R WCI  11
ROMEOVILLE*    CLEAR     22  19  90 W13       30.43S WCI  10
NORTHERLY ISL    N/A     24  17  74 W8          N/A  WCI  15
$$

LMZ740>746-090600-
SOUTHERN LAKE MICHIGAN

STATION/POSITION SKY/WX   TEMP    WIND        PRES    VSBY  WAVE
                          AIR SEA DIR/SP/G                  HT/PER
                          (F)     (DEG/KT/KT) (MB)    (MI)  (FT/S)
HARRISON CRIB              25     270/ 18/ 22   N/A
BURNHAM HARBOR             24     260/  8/ 14   N/A
CALUMET HARBOR             23     240/  8/ 12 1028.9R
BURNS HARBOR               27     280/ 16/ 23 1029.5S
$$

ILZ025>027-034>036-040-047-049-050-058-095>099-090600-
WEST-CENTRAL ILLINOIS

CITY           SKY/WX    TMP DP  RH WIND       PRES   REMARKS
QUINCY         CLEAR     19  12  74 W9        30.57R WCI   8
GALESBURG*     CLOUDY    22  17  80 W9        30.51S WCI  12
MACOMB*        CLOUDY    23  15  73 W14       30.55S WCI  11
JACKSONVILLE*  CLOUDY    22  14  71 W10       30.56S WCI  11
PITTSFIELD*    CLOUDY    22  14  71 W5        30.58S WCI  15
$$

ILZ028>032-037-038-041>044-048-051>054-059>061-090600-
CENTRAL ILLINOIS

CITY           SKY/WX    TMP DP  RH WIND       PRES   REMARKS
PONTIAC        CLOUDY    24  16  73 W13       30.49R WCI  12
BLOOMINGTON    FLURRIES  21  14  74 W14G22    30.49R WCI   8
DECATUR        CLOUDY    21  12  68 NW10G21   30.53S WCI  10
PEORIA         CLOUDY    22  14  71 NW12      30.52S WCI  10
LACON*         CLOUDY    22  15  72 W9G17     30.50S WCI  12
LINCOLN*       CLOUDY    23  15  71 NW7       30.53S WCI  15
SPRINGFIELD    CLOUDY    23  14  68 W7        30.55S WCI  15
TAYLORVILLE    CLOUDY    21  13  72 CALM      30.55S
$$

ILZ033-039-045-046-055>057-062-063-090600-
EAST-CENTRAL ILLINOIS

CITY           SKY/WX    TMP DP  RH WIND       PRES   REMARKS
CHAMPAIGN      FLURRIES  21  14  74 W15       30.51R WCI   8
RANTOUL*       FLURRIES  24  17  77 W14       30.49S WCI  11
MATTOON        FLURRIES  20  11  68 NW14      30.52R WCI   7
PARIS*         FLURRIES  21  17  86 W12       30.52S WCI   9
$$

ILZ079-100>102-090600-
SOUTHWEST ILLINOIS

CITY           SKY/WX    TMP DP  RH WIND       PRES   REMARKS
ALTON          CLEAR     23  13  64 NW12      30.59R WCI  12
BELLEVILLE     MOCLDY    24  13  64 W8        30.57S WCI  15
CAHOKIA*       CLEAR     24  12  60 NW10      30.60R WCI  14
SPARTA*        CLEAR     23  13  65 NW8       30.59S WCI  14
$$

ILZ064>066-069>071-074>076-080>082-084>086-088>090-092>094-090600-
SOUTH-CENTRAL ILLINOIS

CITY           SKY/WX    TMP DP  RH WIND       PRES   REMARKS
CARBONDALE     CLEAR     23  15  71 NW7       30.58S WCI  15
CAIRO*         CLEAR     25  15  66 NW6       30.60R WCI  18
EFFINGHAM*     MOCLDY    23  16  75 W10       30.57R WCI  12
MARION         CLEAR     25  16  68 NW3       30.58S
CENTRALIA*     CLOUDY    27  15  62 NW14G20   30.56R WCI  15
SALEM*         CLOUDY    27  13  56 NW12      30.56R WCI  17
METROPOLIS*    CLEAR     24  15  68 CALM      30.59S
$$

ILZ067-068-072-073-078-083-087-091-090600-
SOUTHEAST ILLINOIS

CITY           SKY/WX    TMP DP  RH WIND       PRES   REMARKS
LAWRENCEVILLE  FLURRIES  24  15  68 NW13      30.55R WCI  12
FLORA*         MOCLDY    26  15  63 NW13      30.57R WCI  15
FAIRFIELD*     CLOUDY    26  15  61 NW5       30.56R WCI  21
HARRISBURG*    PTCLDY    24  16  70 NW7       30.58R WCI  16
ROBINSON*      CLOUDY    23  14  69 NW9       30.55S WCI  13
CARMI*         CLOUDY    27  17  65 NW14      30.56R WCI  16
$$

ABBREVIATIONS USED IN REMARKS
   TC - TEMPERATURE IN CELSIUS
  WCI - WIND CHILL INDEX
   HX - HEAT INDEX
  VSB - VISIBILITY
$$




USA.gov is the U.S. government's official web portal to all federal, state and local government web resources and services.